Theta_e
317 318 318 317 317 317 317 318 318 318 319 319 319 319 319 319 320 320 320 320 320 320 320 319 318 318 318 318 319 319 318 315 311 309 308 312 318 326 334 335 333 335 341 338 347 343 336 338 337 339 337 336 332 332 338 339 338 336 326 323 320 323 321 325 324 325 325 327 333 335 336 335 330 335 337 342 338 337 336 336 339 341 340 343 344 345 346 347
317 317 317 317 317 317 317 317 318 318 318 318 318 319 319 320 320 320 319 320 319 320 320 319 318 318 318 318 318 318 317 313 310 310 310 318 326 327 333 336 338 338 341 339 340 337 333 333 335 336 332 328 333 327 338 333 338 330 326 324 321 325 327 330 329 329 326 326 334 336 337 335 333 336 338 334 333 334 333 335 337 336 340 343 344 344 344 344
317 317 318 317 317 317 317 318 318 318 318 318 319 319 319 319 320 320 320 319 319 319 319 319 318 318 318 318 318 319 314 310 310 309 316 331 331 330 333 334 342 342 342 338 341 338 334 333 335 332 331 324 326 324 333 331 335 333 328 322 324 331 330 332 333 332 332 331 333 335 335 335 336 336 340 334 333 334 332 332 333 334 334 337 340 342 342 343
317 317 318 317 317 316 317 317 318 318 318 318 319 318 319 319 319 320 319 319 319 319 319 318 318 318 318 318 319 318 315 310 308 313 319 335 340 334 335 335 345 339 343 346 345 339 339 338 333 331 324 321 323 329 325 330 328 331 327 324 328 331 328 331 333 332 332 333 333 335 336 333 335 337 336 335 332 331 334 337 335 334 335 336 339 340 341 341
317 317 317 317 317 317 317 317 317 318 318 318 319 318 319 319 319 319 319 319 319 319 319 318 318 318 317 319 317 316 309 304 307 313 325 342 349 338 335 337 344 336 345 344 339 337 339 334 329 326 321 317 322 325 325 330 334 332 327 331 331 332 327 333 333 332 333 334 334 334 331 332 338 336 335 335 331 330 334 338 339 339 339 338 338 340 341 340
317 317 317 317 317 317 317 317 317 318 318 318 318 319 318 319 319 319 319 319 319 319 318 318 318 318 318 319 317 314 303 295 308 312 331 341 347 340 336 339 343 340 340 337 332 334 334 329 325 318 316 317 319 317 323 328 333 322 329 330 332 333 330 335 334 334 332 331 332 331 334 336 334 333 336 336 333 336 341 342 341 341 341 341 341 340 339 338
316 317 317 317 317 316 317 317 317 317 318 318 318 318 318 318 318 318 318 318 318 318 318 318 318 317 316 319 313 312 302 302 310 318 336 348 348 338 339 342 343 336 337 330 329 329 329 324 320 315 314 315 319 320 320 325 330 327 324 328 329 332 330 334 333 330 328 329 329 334 337 333 333 329 336 334 337 339 342 342 342 343 343 342 340 340 338 339
316 317 316 316 316 316 316 316 317 317 317 317 318 318 318 318 318 318 318 318 318 318 318 318 317 318 320 315 311 305 303 303 314 326 347 350 344 337 339 336 332 332 332 326 326 325 325 320 316 316 312 310 313 318 319 322 326 324 323 327 328 328 328 329 329 328 328 327 331 334 331 332 334 333 335 333 337 340 341 343 342 343 342 341 340 340 340 340
316 316 316 316 316 316 316 316 317 317 317 317 317 317 317 317 317 318 319 319 319 318 318 318 318 318 319 314 309 298 299 308 322 333 343 342 338 335 334 328 330 329 329 326 326 324 322 318 316 314 307 310 314 316 317 318 316 325 325 325 325 325 326 326 325 326 326 327 332 331 330 333 335 335 332 335 337 341 342 341 341 342 340 340 340 340 340 339
316 316 316 316 316 316 316 316 316 317 317 317 317 316 317 317 317 318 318 318 319 318 318 319 319 320 317 311 306 295 303 318 316 321 331 337 335 332 331 326 326 328 325 323 324 322 318 318 316 315 314 312 316 313 317 317 316 322 323 325 324 325 325 327 325 326 326 325 330 327 328 330 335 332 326 336 339 341 341 340 341 340 339 340 340 340 340 340
316 316 315 315 315 315 316 316 317 316 316 316 316 316 316 317 317 317 318 319 320 320 318 319 320 319 312 314 300 296 309 316 317 315 317 332 331 327 326 325 324 327 324 322 321 322 320 319 319 316 312 309 314 313 315 316 322 320 320 320 321 322 323 324 323 323 324 323 328 328 325 330 332 331 328 334 340 341 339 339 339 339 340 340 341 341 341 341
315 315 315 315 315 315 316 316 316 315 315 315 315 315 315 315 316 317 319 321 320 319 320 320 321 318 314 307 302 302 313 314 316 316 317 319 322 328 329 326 319 326 324 319 320 321 320 319 318 313 304 316 307 313 314 319 317 318 319 314 317 318 317 320 319 321 323 322 327 328 324 323 325 325 332 336 340 340 339 338 338 339 339 340 340 340 341 341
315 315 315 315 315 315 316 315 315 314 314 314 315 314 314 314 316 318 322 321 320 320 321 322 321 318 311 302 306 313 316 317 316 317 320 320 318 326 329 327 317 315 323 322 319 321 319 320 318 311 313 311 311 303 310 317 317 318 316 315 314 315 315 321 322 322 322 323 326 327 312 318 323 328 332 337 339 339 337 337 338 338 339 339 340 339 340 341
315 315 315 314 314 315 316 315 314 314 314 314 314 313 313 314 316 322 322 320 321 321 322 323 320 318 309 303 310 314 315 318 320 320 314 318 319 323 324 326 318 316 317 320 320 322 316 318 318 314 315 311 309 314 310 310 314 309 312 314 310 310 312 319 321 322 319 325 326 326 312 316 323 328 332 337 339 337 335 337 337 338 338 339 339 339 339 340
315 315 315 314 314 315 315 314 313 313 313 313 312 312 313 313 319 322 322 322 321 324 324 323 319 311 306 308 315 318 328 328 323 313 312 310 311 321 322 324 317 317 317 318 318 319 316 317 316 311 307 314 313 309 306 308 308 310 305 303 309 308 312 317 319 321 318 323 327 323 314 316 321 326 333 337 338 337 336 336 337 337 338 338 339 339 338 339
314 314 314 314 314 315 314 313 312 313 313 312 310 312 314 317 324 323 323 323 324 324 322 316 314 313 307 300 307 321 318 309 307 310 315 310 307 310 324 322 319 318 318 316 317 318 315 316 312 311 310 310 308 307 305 304 306 308 304 305 305 308 310 313 318 320 322 323 325 322 315 319 321 327 333 337 337 337 336 336 337 337 337 338 338 339 339 339
314 314 314 314 315 314 314 312 312 312 311 311 310 313 316 323 324 325 325 325 324 322 317 314 314 314 303 308 313 306 303 306 310 309 308 308 307 314 323 320 315 314 316 314 315 315 314 312 312 311 311 307 306 306 302 300 301 304 306 304 307 307 309 309 315 317 320 320 319 323 317 318 322 328 333 336 337 336 335 336 337 337 337 338 339 338 338 338
314 313 314 314 315 314 313 312 312 311 310 309 310 312 314 324 325 325 323 322 322 320 315 316 313 311 307 311 299 300 306 305 307 306 306 308 308 315 321 317 315 313 312 310 312 308 310 308 309 304 306 306 305 302 298 295 299 301 303 303 304 308 310 310 311 315 316 318 317 320 319 318 322 329 333 335 336 335 335 336 337 337 337 338 338 338 338 338
314 313 313 314 314 313 312 312 311 310 309 310 311 318 317 321 314 318 314 316 302 299 297 298 300 294 291 299 303 305 304 305 306 304 304 311 308 320 322 320 315 310 305 305 305 307 307 306 305 302 298 301 301 302 300 303 304 304 306 305 306 305 307 308 313 315 317 316 315 317 316 318 321 326 332 334 336 334 335 337 337 337 338 338 338 338 338 338
314 314 314 314 313 312 312 312 310 309 308 309 309 307 308 303 301 299 304 303 297 295 296 297 299 299 301 303 302 305 307 306 302 303 305 309 316 319 317 316 311 309 305 300 304 305 307 300 297 297 299 301 303 304 304 306 305 306 307 306 306 306 309 310 310 313 317 315 316 317 318 318 320 324 330 333 335 335 335 336 336 337 337 337 337 337 338 339
313 313 313 313 312 312 312 311 310 308 308 309 306 305 298 298 295 294 299 300 299 299 297 298 298 298 299 302 302 302 299 302 302 303 305 310 316 317 312 311 305 301 303 304 303 307 305 299 298 301 302 302 303 305 305 304 305 305 305 306 306 307 306 311 310 312 316 312 312 316 316 317 319 323 329 333 333 332 333 334 336 336 337 337 338 337 338 340
313 313 313 312 312 311 310 310 309 308 308 308 307 302 302 303 306 306 300 294 298 298 298 298 298 298 302 301 303 302 300 298 302 304 307 308 314 311 310 309 303 300 303 303 303 300 298 297 300 303 303 303 302 303 304 303 302 304 304 304 304 306 308 310 310 311 313 313 311 314 313 314 318 321 328 331 332 334 335 335 336 337 337 337 338 339 339 340
313 313 312 312 311 310 310 309 308 306 311 309 304 303 302 307 308 307 304 296 294 299 298 299 299 300 300 303 302 303 299 298 297 303 304 308 309 309 310 307 305 304 302 302 298 298 295 298 302 304 303 301 300 301 302 302 302 301 303 302 302 305 305 304 310 310 312 311 311 313 311 313 317 322 326 331 332 334 336 336 337 338 337 337 338 339 339 339
313 313 312 311 310 310 309 308 306 307 307 305 305 304 306 308 311 305 299 293 291 297 299 301 300 300 299 298 303 301 298 299 299 300 307 305 302 306 308 307 306 304 300 300 300 299 298 302 305 303 302 301 299 300 300 299 298 301 301 303 304 304 305 305 306 307 308 310 312 311 309 310 314 314 319 328 333 333 335 335 337 339 340 341 341 341 341 340
312 312 312 311 310 309 307 305 307 306 305 305 304 307 308 311 312 305 299 294 293 296 301 301 302 302 300 304 304 299 300 299 300 303 305 304 302 302 305 310 307 302 303 302 301 300 300 305 306 302 301 301 300 298 299 299 297 298 302 303 305 306 305 306 307 306 306 307 309 309 304 306 313 313 314 323 329 330 334 333 333 336 337 339 338 339 341 341
312 312 312 310 310 309 306 304 306 305 305 304 306 308 310 311 312 307 299 292 288 295 300 293 302 296 303 300 301 299 300 297 303 304 305 306 308 302 302 304 307 301 303 303 301 302 301 306 304 302 301 300 300 299 301 301 298 297 299 304 305 306 307 306 305 305 302 301 307 309 303 302 312 311 314 322 326 328 332 332 333 334 336 337 337 339 339 340
311 311 311 310 310 307 310 303 305 306 303 304 309 310 310 311 314 306 295 288 286 295 292 297 298 297 302 300 300 301 291 294 304 304 305 308 302 306 299 301 305 306 307 306 302 299 304 304 303 304 302 301 299 298 301 302 298 296 305 306 305 305 305 306 306 305 304 307 307 307 306 302 303 309 316 320 323 325 328 330 332 333 335 335 337 338 340 340
311 310 310 309 307 307 306 306 307 304 302 307 310 310 311 313 307 302 293 282 282 296 290 295 297 303 301 300 302 297 296 300 296 302 306 307 308 302 300 299 301 303 305 304 294 304 304 302 302 301 302 301 299 301 303 304 299 301 307 308 306 306 307 307 306 306 305 303 301 305 307 301 301 309 314 319 317 322 326 329 331 333 335 335 336 337 339 340
310 310 310 309 307 305 309 307 306 303 307 309 310 310 311 310 302 296 288 281 293 293 302 293 304 300 299 301 298 298 297 300 294 300 305 307 307 303 298 300 301 302 305 305 300 303 305 305 305 305 302 300 303 304 305 304 300 304 309 309 308 309 309 308 306 306 306 302 298 303 305 299 301 307 308 318 316 318 323 328 331 333 334 335 335 337 338 340
310 310 309 308 307 308 308 307 306 309 310 310 309 310 307 303 298 289 283 278 294 286 295 295 296 292 297 294 294 297 295 297 299 301 304 301 303 305 302 304 300 299 300 301 301 304 306 311 311 306 303 305 305 306 306 305 305 308 308 307 307 306 306 307 307 306 303 297 300 304 305 302 297 305 308 310 311 316 321 327 331 334 335 336 337 338 338 338
309 308 308 308 305 307 307 304 306 309 310 310 309 305 302 300 291 285 279 286 291 291 295 293 291 296 293 292 290 295 295 296 297 299 299 303 300 301 300 300 301 299 299 299 299 301 303 306 305 307 310 309 308 305 307 308 307 307 304 303 303 302 304 304 302 304 297 295 302 305 305 304 295 302 309 314 318 318 320 321 327 330 333 335 337 337 338 339
308 307 307 307 307 310 304 301 307 310 310 308 306 300 297 287 290 283 282 294 284 289 289 290 293 292 292 294 292 292 291 295 297 297 296 297 295 294 293 291 291 292 293 296 296 300 299 301 306 307 312 308 305 304 305 306 306 304 303 302 297 296 297 293 297 293 294 294 302 305 305 300 300 305 311 312 313 315 320 320 324 328 331 335 336 338 338 339
307 306 305 307 309 308 309 310 311 311 309 306 302 300 292 286 280 287 285 289 284 291 289 293 291 291 291 292 290 293 295 290 296 297 297 297 296 295 295 294 294 293 291 296 295 295 298 303 303 305 307 310 307 300 301 300 303 302 300 299 295 292 291 288 292 295 295 299 302 302 305 299 305 307 311 310 313 315 317 323 324 327 331 334 336 338 338 339
306 306 306 308 307 308 310 314 311 308 306 306 301 295 290 282 282 292 286 288 287 292 292 290 291 292 292 289 290 292 290 293 293 294 297 294 295 293 295 295 295 293 294 294 293 295 291 292 298 302 300 307 307 305 304 303 304 303 304 301 298 296 292 288 292 289 291 294 299 303 298 297 298 304 312 313 314 316 317 320 324 328 330 335 336 338 338 339
305 307 306 307 308 311 311 310 309 308 304 301 297 292 284 283 286 285 286 288 290 291 289 291 290 289 289 290 292 293 292 290 293 293 294 294 292 292 291 292 294 295 293 290 295 294 293 295 300 301 302 302 304 308 309 306 304 306 306 306 300 298 303 294 297 295 294 294 294 297 297 305 303 312 311 315 316 316 317 318 321 325 329 331 332 334 336 337
305 307 307 308 307 307 308 308 308 307 302 299 294 288 284 286 284 288 287 292 290 288 289 290 290 287 287 288 291 290 295 290 292 292 292 293 293 292 294 293 292 294 291 290 292 290 293 292 299 300 303 303 303 304 306 308 296 303 304 299 301 308 304 298 299 302 298 296 293 301 299 302 307 308 311 312 311 313 315 315 317 320 325 330 329 331 334 336
304 305 306 307 306 308 309 309 307 305 306 299 292 286 289 289 292 290 293 291 290 290 288 285 286 285 285 285 287 289 290 293 291 290 288 293 290 293 292 294 296 294 295 293 291 295 289 292 298 298 299 303 305 305 304 306 308 305 298 302 308 310 307 301 292 297 294 291 295 297 295 297 299 296 309 310 309 311 313 313 314 318 324 327 328 331 333 335
303 302 303 306 306 308 309 309 306 304 302 299 290 291 293 289 294 293 294 293 291 291 288 286 287 289 285 286 286 287 291 287 289 289 287 291 287 296 292 292 296 295 295 297 292 293 294 289 296 299 300 303 305 305 304 307 309 305 303 311 301 296 295 301 298 290 290 289 292 296 297 297 300 300 306 307 309 310 313 315 314 315 321 324 327 330 334 336
302 301 301 304 308 309 308 308 305 306 299 292 290 288 292 291 295 294 295 294 291 290 288 288 286 288 288 286 287 289 290 285 289 287 286 289 286 294 292 293 292 295 296 297 293 294 296 289 294 299 299 301 302 303 297 302 308 309 310 306 309 305 300 297 298 299 298 292 292 293 296 294 302 303 305 307 311 312 313 315 314 316 320 323 326 329 332 334
300 299 298 306 308 309 309 309 304 300 295 289 290 289 293 291 294 296 296 295 292 291 289 288 289 287 288 288 288 287 289 289 289 288 288 290 288 296 292 296 292 294 296 297 294 297 292 298 289 297 300 300 296 301 299 302 301 302 302 302 304 304 307 305 304 299 296 294 293 293 291 297 304 309 307 308 311 315 315 316 320 319 320 323 327 329 332 334
300 297 299 307 307 308 308 306 298 293 291 292 293 292 293 293 294 295 297 297 294 296 292 290 290 287 288 287 288 290 288 290 290 288 289 289 289 286 295 293 295 292 296 296 295 297 294 294 289 294 295 296 298 302 300 299 299 299 301 301 303 301 298 295 294 303 300 297 293 293 292 300 306 311 310 309 311 315 317 318 319 320 320 324 326 330 334 334
298 295 297 306 308 307 305 296 295 296 294 291 290 293 292 299 294 294 296 297 296 293 296 293 292 290 290 289 289 289 289 288 290 289 290 287 292 291 294 297 295 296 293 291 293 298 298 297 293 290 293 295 299 301 302 301 300 300 300 300 301 302 304 299 292 297 300 300 301 299 295 299 311 315 312 313 313 313 317 317 317 318 321 323 326 329 333 336
296 295 304 307 308 305 300 293 296 295 292 293 297 295 296 294 294 295 294 295 293 295 293 292 291 290 291 290 290 289 290 287 289 288 291 291 291 294 296 296 296 295 295 294 297 297 302 293 290 291 296 297 300 301 301 302 301 299 299 300 300 298 297 297 299 302 299 300 297 297 294 299 309 319 317 312 315 313 313 313 317 318 320 322 324 327 332 336
296 296 300 307 307 306 298 289 289 291 293 294 295 293 296 295 294 293 293 294 293 292 291 291 292 294 290 293 291 288 292 284 291 290 289 292 290 297 296 296 297 293 293 294 294 299 291 294 291 289 290 293 296 299 299 300 301 297 296 298 298 298 299 299 300 302 297 299 300 297 292 299 308 319 320 316 314 311 312 313 313 313 318 320 322 326 330 338
297 299 299 302 305 303 293 294 292 291 291 291 292 291 292 293 295 295 294 293 295 294 292 291 292 293 292 293 291 292 292 289 286 291 291 292 292 298 297 296 297 294 296 298 301 301 293 293 291 286 285 284 284 286 290 294 294 295 296 296 297 296 296 298 297 299 293 301 302 298 298 305 310 317 315 312 313 318 315 314 313 314 318 318 321 324 331 335
294 292 296 298 300 299 297 298 295 293 291 291 290 291 292 291 294 296 296 294 296 295 294 293 294 294 292 292 290 289 289 292 289 288 290 289 292 294 296 296 296 295 298 300 301 298 292 294 293 290 288 289 290 289 290 293 294 292 294 295 295 296 297 297 298 296 295 301 299 302 303 304 307 307 311 312 314 313 314 318 316 317 317 319 326 328 329 332
297 292 292 290 297 296 293 296 294 294 291 293 289 291 289 291 292 293 297 292 295 294 293 293 292 290 290 290 288 288 290 289 291 290 289 289 292 293 297 295 295 297 299 299 299 295 292 290 292 292 292 292 293 292 293 293 291 293 293 293 296 295 296 295 295 297 301 297 294 304 308 302 304 307 311 312 313 318 316 319 319 322 323 320 322 331 333 331
292 294 296 296 290 288 291 291 294 293 294 294 291 293 290 290 290 289 294 295 295 296 291 293 293 292 291 289 289 286 288 288 289 287 290 291 291 292 292 295 294 297 298 297 298 293 289 287 291 291 291 292 293 293 294 293 293 293 294 294 294 296 296 294 296 298 299 297 297 305 310 307 306 307 309 312 318 319 314 319 319 317 317 319 323 321 321 326
297 296 297 300 292 293 293 293 294 293 293 295 293 292 290 290 289 291 291 292 293 293 294 288 290 292 292 292 290 287 288 284 285 289 289 289 289 290 289 292 294 296 296 295 295 296 292 288 291 291 290 291 292 293 294 293 293 293 293 294 295 295 296 297 298 300 299 300 302 303 306 306 306 308 314 315 319 318 316 319 320 321 316 320 319 318 316 318
294 294 294 298 297 295 295 294 292 293 291 294 290 291 291 290 289 292 293 291 289 291 294 290 291 292 292 292 291 288 289 290 289 286 291 290 290 291 290 291 290 295 296 293 293 295 291 288 294 290 289 290 292 293 294 294 293 292 294 295 295 296 297 300 303 307 307 305 305 304 305 305 311 321 324 324 324 332 328 326 333 338 338 337 333 328 321 317
300 302 301 295 293 295 295 293 292 292 291 292 290 291 292 291 290 293 292 295 292 290 292 290 292 292 293 292 292 291 293 292 293 292 293 293 288 293 290 291 295 291 293 292 293 292 293 290 292 290 286 288 292 292 293 294 293 293 293 295 296 297 299 305 307 309 307 304 305 304 303 305 318 324 326 326 330 334 333 335 336 337 338 339 339 338 332 326
305 306 304 299 292 296 292 293 292 291 289 292 292 292 291 291 293 294 290 294 295 296 295 294 294 292 292 292 291 293 295 295 295 296 297 297 297 296 296 295 295 292 291 292 294 290 291 289 288 288 285 286 292 292 291 292 294 292 294 296 298 304 307 308 311 312 311 311 308 304 304 316 317 324 326 329 333 333 333 333 334 336 337 338 339 340 340 333
Wind_Speed
21 21 23 23 23 22 22 21 20 20 20 20 20 19 19 19 18 17 17 17 18 17 15 14 12 12 11 11 10 9 6 6 5 4 7 15 7 11 10 8 12 18 11 16 17 18 15 14 13 12 10 7 4 5 7 5 2 3 3 3 5 4 4 1 1 1 3 5 9 11 12 10 10 7 7 8 7 9 10 5 7 6 7 8 12 18 20 20
23 22 23 22 22 22 22 21 21 20 20 20 19 20 20 19 18 17 16 16 17 17 16 13 12 11 10 10 9 8 5 4 7 9 18 6 11 16 14 10 11 18 13 17 22 19 18 15 14 13 10 6 4 3 9 5 5 6 4 5 4 4 1 1 2 3 3 2 7 9 10 10 10 12 8 8 9 12 9 7 8 10 11 14 17 20 22 22
23 22 22 23 23 22 22 22 21 20 19 19 19 20 20 19 19 18 16 16 16 16 15 14 12 10 8 8 7 2 3 4 5 10 11 13 20 16 17 13 14 20 17 20 19 21 22 22 17 14 8 5 5 5 8 6 7 7 5 6 7 4 2 4 6 7 5 2 9 10 9 7 9 9 9 7 12 12 11 10 9 12 14 16 19 21 21 21
22 22 22 21 23 24 23 22 21 21 21 20 20 20 19 19 20 19 17 16 16 15 14 13 11 9 7 7 5 2 4 4 3 2 3 6 12 19 17 17 14 19 11 7 11 9 9 16 17 14 9 4 5 4 9 8 7 6 7 7 1 1 4 2 0 3 3 4 7 10 8 7 10 8 10 10 10 11 9 13 16 16 18 19 21 22 21 22
22 22 22 22 22 23 22 22 22 22 21 21 19 19 19 19 19 18 16 16 14 14 12 12 10 7 5 1 2 1 4 3 4 3 5 10 3 17 18 18 17 17 11 10 9 10 17 18 15 9 7 7 6 6 8 10 8 5 11 6 3 1 2 1 3 6 5 0 5 8 11 9 8 7 10 14 9 8 12 13 12 17 19 22 23 22 21 23
23 23 22 22 22 23 23 23 23 23 22 21 20 19 18 18 18 18 16 15 14 12 11 9 7 6 5 2 2 2 2 2 2 5 11 16 3 14 18 17 18 15 13 16 13 14 16 13 14 9 5 6 11 10 7 11 11 6 9 12 10 8 7 2 2 4 8 0 5 9 8 6 12 8 10 14 12 3 3 12 13 18 20 21 22 22 22 23
23 23 23 22 23 24 23 23 22 22 21 21 20 18 18 17 17 17 15 13 13 10 8 7 5 4 1 1 1 3 1 8 5 12 19 14 7 16 18 17 21 14 16 15 15 16 15 17 12 10 8 5 8 8 5 11 10 10 7 4 9 9 13 11 11 7 5 4 5 6 7 10 12 10 11 13 9 3 9 15 16 17 18 21 22 23 24 23
23 23 23 23 24 24 24 24 23 22 22 21 20 18 17 17 17 17 15 13 11 8 5 4 2 1 3 2 2 1 1 5 5 11 16 6 11 16 19 15 18 16 16 18 19 18 19 19 16 11 8 10 3 10 4 9 12 11 11 10 9 6 9 9 9 8 8 7 5 7 10 12 13 7 9 14 8 9 13 16 17 18 18 19 21 21 20 20
23 23 23 24 24 23 24 24 24 23 22 21 20 19 18 17 15 16 14 12 9 6 6 4 5 5 6 1 1 7 4 3 2 8 8 9 10 13 17 13 13 18 16 14 16 15 17 14 12 13 7 12 5 11 6 7 8 14 15 2 3 5 4 4 6 7 7 3 5 8 11 10 12 2 9 9 8 12 16 17 19 19 19 19 20 21 21 21
23 23 24 24 24 24 24 24 23 23 22 22 21 19 18 17 15 15 14 11 7 2 1 4 8 7 5 0 2 4 2 6 5 10 10 9 9 12 10 8 18 16 16 16 12 15 17 14 16 8 3 6 6 6 10 11 1 5 13 13 12 11 11 11 11 11 9 6 6 8 8 10 10 8 7 11 12 15 16 18 18 20 20 19 18 18 19 20
23 24 24 24 24 25 25 23 23 23 23 23 21 18 18 17 16 14 12 9 4 4 6 7 9 8 2 2 3 6 2 1 1 7 8 3 10 12 13 8 16 16 17 16 17 17 12 11 9 5 1 4 7 5 10 7 7 4 1 5 11 12 13 13 12 13 7 6 10 10 9 7 11 10 9 11 14 17 17 18 19 18 19 17 19 18 17 16
24 24 24 24 25 25 24 23 22 23 23 23 21 17 17 18 16 14 10 4 2 6 8 9 10 3 2 2 6 7 3 2 6 7 4 4 5 10 12 11 13 15 17 17 17 16 10 11 12 11 5 8 7 3 9 12 8 7 6 8 5 6 10 10 10 8 5 6 7 8 6 6 10 13 13 12 15 17 17 17 19 18 17 17 18 16 15 16
24 24 24 24 25 25 23 23 23 23 23 22 19 16 17 18 15 11 5 2 6 7 8 11 8 2 2 5 6 8 8 8 8 10 7 1 5 3 5 10 12 4 8 16 17 16 4 10 13 15 2 5 7 5 3 6 11 6 9 9 10 9 10 10 9 9 7 7 6 7 4 6 13 14 9 14 15 16 16 15 16 14 15 15 17 16 16 15
25 26 26 26 26 25 24 23 24 23 23 21 19 16 17 15 10 6 5 7 9 8 10 11 4 1 1 5 5 2 5 5 6 5 7 2 4 2 5 8 8 2 0 4 5 7 3 3 5 6 2 3 4 5 5 2 4 9 7 4 7 5 6 3 3 6 11 7 11 9 6 7 7 13 12 15 18 19 17 16 16 15 15 15 16 15 16 18
24 26 26 27 27 24 24 24 23 22 22 20 19 16 15 11 7 4 8 9 8 9 11 8 2 2 1 6 4 8 10 3 2 4 6 3 3 4 5 10 11 3 2 7 7 7 3 5 5 6 7 1 4 5 3 3 2 5 5 8 6 7 9 4 2 8 9 4 12 11 8 11 7 8 15 16 18 19 17 16 17 16 16 16 15 16 17 17
24 24 25 27 26 24 24 23 23 23 23 20 19 17 11 7 4 7 5 5 9 11 7 3 2 1 3 4 3 1 1 4 9 10 3 2 3 2 8 11 10 2 2 4 4 6 4 5 11 7 5 2 7 3 2 4 6 4 9 4 8 7 11 8 7 9 9 4 11 14 5 1 5 7 14 16 19 19 16 17 17 18 18 17 16 15 15 15
24 24 25 26 25 24 26 23 23 22 23 20 20 9 7 1 6 7 7 8 6 4 1 1 2 1 1 2 5 2 5 8 2 7 5 5 6 5 11 12 10 7 2 6 7 10 7 7 3 2 4 6 5 5 5 8 7 7 7 8 4 10 9 9 1 5 10 9 8 14 11 11 2 6 13 15 19 19 15 17 18 17 16 17 15 15 16 17
24 26 26 25 25 25 25 24 22 22 23 21 15 5 1 7 6 6 5 3 2 1 1 2 2 3 5 4 11 13 12 10 7 9 12 6 7 10 12 10 9 10 10 9 6 12 8 9 5 8 5 10 7 10 11 12 12 9 8 8 6 7 10 8 5 4 7 10 10 12 15 13 6 4 11 16 18 18 17 17 18 18 17 16 15 16 18 18
27 27 27 26 23 26 24 23 21 21 20 20 5 5 4 3 1 1 1 1 2 1 1 3 4 5 3 15 14 11 9 14 11 5 2 3 6 9 8 6 15 16 12 11 6 10 8 5 6 8 12 12 15 15 15 3 1 9 9 9 8 10 10 10 9 0 4 8 10 12 12 12 11 7 9 11 16 18 17 15 13 15 15 15 15 16 16 17
27 26 26 24 25 24 24 22 21 20 17 13 3 1 2 2 1 1 2 2 5 2 2 6 2 5 10 9 11 12 13 3 4 2 4 1 9 11 9 10 11 10 11 12 10 10 10 12 14 17 17 16 15 15 13 6 6 2 6 7 9 11 10 3 4 4 2 3 9 10 12 12 12 11 11 14 14 14 13 14 14 15 15 16 16 17 18 19
29 28 27 26 26 24 22 22 19 18 15 3 5 4 7 7 6 5 10 8 3 3 4 5 5 6 8 12 11 11 11 5 1 3 3 3 6 11 8 11 11 10 11 10 10 6 10 11 15 16 11 10 11 11 8 8 11 4 3 8 9 10 12 8 4 1 4 8 6 8 11 13 13 11 11 11 13 15 16 16 16 16 17 16 19 19 19 16
30 28 28 28 26 25 23 20 19 16 10 2 5 8 4 6 1 1 1 6 3 2 3 6 2 6 6 8 7 3 2 4 7 10 3 2 10 8 8 9 12 11 10 9 8 8 11 15 14 12 6 5 6 10 12 13 15 13 7 4 5 8 6 8 6 6 2 4 8 5 10 12 12 11 10 13 16 16 18 19 19 19 19 17 17 18 16 15
30 29 28 28 27 25 23 19 16 11 3 3 7 7 6 3 2 1 3 2 6 3 2 2 1 5 7 2 1 2 5 3 5 8 9 4 6 4 10 8 10 7 10 13 13 10 9 13 13 9 9 12 10 11 12 14 13 13 11 8 9 1 5 9 5 3 8 8 5 3 10 10 7 5 11 15 16 15 16 18 17 18 21 21 21 20 19 20
30 29 30 29 27 26 21 18 12 3 4 2 3 7 3 2 5 1 4 3 4 5 2 0 2 3 6 9 3 6 2 2 2 11 5 5 2 3 5 9 10 8 12 16 16 12 10 4 10 10 11 13 13 13 14 12 13 14 16 12 9 7 6 4 1 5 2 8 9 7 10 11 8 8 7 11 15 12 11 13 12 11 12 10 10 12 15 19
29 28 28 29 29 27 24 12 2 4 2 1 2 2 1 4 6 3 4 1 2 3 2 2 2 0 8 2 2 5 1 2 4 4 3 4 7 2 2 4 6 9 9 14 12 11 12 4 10 17 16 14 15 13 16 13 12 12 18 17 12 8 7 7 7 8 4 6 7 9 9 12 9 11 13 7 10 13 12 13 16 15 14 13 15 18 17 17
30 27 27 26 28 28 20 1 3 4 4 2 2 1 3 5 5 3 3 2 0 2 2 4 2 3 2 7 7 3 3 1 0 4 4 5 5 5 1 6 6 8 10 11 11 7 11 8 11 13 17 18 16 14 15 15 12 11 13 17 17 12 9 9 9 5 6 9 3 2 11 11 4 9 10 9 12 16 13 15 17 16 14 16 16 15 17 19
29 26 25 24 24 26 5 2 3 5 3 2 6 10 7 6 3 5 3 0 1 3 3 4 4 3 3 8 12 3 2 5 13 2 8 9 5 2 5 5 5 2 5 5 2 10 7 10 10 10 11 15 15 15 14 17 12 13 4 13 14 15 13 12 10 9 8 6 10 8 5 9 9 9 6 8 13 15 15 17 17 15 16 18 18 18 18 18
28 25 24 24 22 14 1 4 6 3 1 9 11 10 8 4 4 2 2 1 1 2 3 4 4 5 6 9 9 8 3 9 5 7 12 10 3 3 5 6 7 9 10 9 15 3 13 11 14 13 11 11 15 15 14 19 14 5 6 9 13 14 13 12 10 9 7 6 9 8 5 6 10 5 4 6 10 11 14 17 16 16 17 19 19 19 19 20
23 24 23 24 23 10 2 1 2 5 8 10 10 9 5 1 4 1 1 3 2 2 3 2 2 1 10 6 8 9 4 5 5 8 13 3 5 5 5 6 6 6 7 14 13 4 5 10 12 14 11 12 11 11 11 18 14 10 6 9 9 10 11 12 10 11 10 9 14 11 8 10 11 8 6 5 9 12 14 16 15 16 18 18 18 19 18 17
24 23 23 22 15 3 1 1 4 4 8 10 9 8 2 3 2 3 2 5 3 3 4 3 4 7 7 6 3 12 9 7 5 8 6 4 11 2 4 4 3 5 9 6 11 10 5 2 13 12 15 12 8 11 10 16 16 6 8 7 9 11 11 8 9 8 7 15 15 15 10 11 12 13 11 9 8 9 9 10 11 13 16 16 16 16 15 16
25 25 22 17 3 2 3 2 4 8 10 8 8 3 3 0 1 2 4 3 1 3 2 5 7 4 9 12 6 10 5 9 10 12 9 9 9 11 10 5 10 4 5 7 8 11 12 10 8 5 11 8 11 8 10 14 15 10 10 9 6 3 3 8 6 6 11 16 10 14 13 13 14 12 10 9 5 8 10 11 13 15 17 17 16 16 18 19
27 26 25 11 3 3 4 8 14 12 8 10 6 3 2 2 0 3 1 3 3 3 4 5 7 3 5 4 7 10 7 7 11 9 8 7 8 10 9 6 6 3 11 12 12 6 12 14 8 4 8 14 13 12 9 12 14 13 11 11 11 6 7 9 8 12 15 14 5 12 11 11 21 15 4 6 10 11 10 9 11 14 16 17 17 18 17 17
27 26 22 4 3 1 4 6 8 9 9 7 1 1 2 1 3 1 2 4 3 5 2 0 5 7 1 3 8 10 3 9 11 8 6 6 5 8 9 10 6 2 4 2 2 5 12 11 10 10 5 12 13 14 10 11 13 15 14 13 13 11 11 10 11 7 8 10 2 1 9 16 8 9 14 18 15 13 10 10 10 12 14 15 16 16 16 16
25 21 7 3 4 6 5 7 7 10 9 2 2 2 3 2 1 3 3 3 4 1 2 3 4 4 11 6 6 8 3 5 10 7 7 1 4 3 4 10 13 7 1 4 8 9 11 9 14 15 10 2 13 15 12 9 11 14 13 14 13 11 10 12 9 13 10 6 7 12 4 8 7 6 7 14 17 18 14 12 12 13 13 13 14 14 17 17
24 13 6 4 2 4 6 7 8 9 5 4 2 1 2 1 1 1 1 3 1 2 2 1 1 2 4 5 5 5 4 2 9 6 7 5 4 5 6 7 11 8 2 4 1 1 10 7 5 5 2 2 6 12 13 13 10 12 13 11 14 16 8 10 3 8 7 7 8 11 12 2 5 4 5 4 8 13 14 16 16 15 12 10 9 12 15 17
13 6 2 1 4 10 12 8 7 6 3 3 2 4 3 2 2 1 2 2 2 1 3 1 5 1 2 2 2 7 5 3 8 4 3 5 5 4 4 4 8 10 7 2 5 3 1 8 4 6 2 2 2 7 4 11 12 11 12 16 15 7 9 10 4 1 2 7 14 4 8 13 5 12 10 7 8 10 11 13 15 16 13 12 12 13 16 17
7 7 2 5 5 14 13 9 5 3 1 1 3 3 2 3 4 2 3 4 2 1 1 4 3 3 3 4 4 7 7 4 4 5 2 1 1 6 4 2 6 7 7 4 2 1 4 6 8 3 6 6 5 5 6 9 8 7 14 14 8 8 11 10 11 5 10 12 5 7 15 12 9 11 12 14 8 10 11 12 14 16 12 14 14 14 15 17
7 4 4 4 13 15 12 8 4 1 2 4 7 6 1 3 2 3 3 2 1 1 1 0 2 3 2 3 4 6 6 4 6 4 2 5 1 5 4 5 5 7 8 5 3 2 3 6 6 2 6 4 8 3 7 10 11 12 10 10 11 11 14 13 7 14 12 14 9 6 8 14 12 11 4 15 19 15 10 10 12 13 12 15 15 16 16 17
2 2 2 8 15 15 13 9 1 2 2 6 3 5 3 2 2 6 6 2 1 0 1 2 1 3 2 2 3 1 5 3 4 3 3 3 2 4 4 5 5 11 10 7 3 3 3 5 2 1 1 4 5 4 13 11 11 14 6 12 13 6 12 12 14 6 4 11 6 9 9 13 10 11 10 8 12 16 17 11 12 13 14 14 14 15 15 15
5 1 2 11 17 15 12 5 4 4 5 5 3 4 2 2 5 6 8 3 3 1 2 1 1 1 2 1 1 2 1 2 2 2 2 3 2 5 5 6 7 11 12 8 4 3 2 1 6 2 3 4 7 8 11 8 13 13 10 11 10 11 2 9 8 13 11 9 10 7 8 10 9 5 10 14 12 11 14 12 10 11 12 15 15 14 14 16
2 0 1 12 19 15 7 6 8 7 5 3 4 3 4 5 5 7 10 11 2 2 3 2 1 1 1 1 1 1 2 1 2 2 1 1 3 1 4 6 7 9 12 7 2 3 3 2 6 6 6 7 3 6 5 5 7 4 4 9 13 14 9 14 15 11 13 10 6 8 12 5 2 5 11 14 13 12 12 13 12 13 13 13 13 14 14 14
4 4 6 16 17 16 2 6 5 2 3 5 4 4 3 7 4 9 8 8 6 3 3 2 3 3 2 1 1 2 3 2 1 2 1 2 3 4 3 6 7 9 6 5 5 4 4 4 5 6 6 7 8 6 7 7 6 4 5 4 7 6 11 11 11 10 11 14 10 10 9 11 4 1 6 9 11 14 13 13 13 11 11 12 13 15 15 16
5 2 7 12 16 8 5 7 3 5 5 3 3 1 3 3 5 5 6 8 3 5 3 4 4 1 3 3 1 2 2 3 3 3 2 2 5 3 2 5 8 9 7 4 6 2 7 3 4 8 8 11 14 7 2 1 7 5 4 4 4 1 5 5 5 4 9 11 10 11 13 9 6 6 7 7 9 9 8 7 8 10 10 11 11 11 12 12
4 4 5 9 16 4 8 5 4 4 4 3 6 6 5 5 8 8 7 8 6 4 3 3 2 6 2 4 3 2 3 3 2 3 3 2 3 3 2 2 6 6 5 4 5 6 5 3 3 3 5 6 8 4 3 5 4 3 1 2 2 4 7 7 7 4 5 11 14 10 15 6 9 4 5 11 6 8 11 9 7 10 7 6 7 6 8 9
4 3 3 5 13 11 7 2 3 4 4 5 6 10 8 3 6 6 6 7 6 4 1 4 4 3 4 5 2 3 1 3 4 1 5 3 4 1 3 2 4 7 5 8 9 8 5 5 2 5 9 12 13 12 10 6 1 3 2 2 1 6 8 4 7 6 9 7 12 13 10 6 5 3 7 13 14 7 10 7 4 7 8 8 6 5 5 6
4 3 4 4 7 7 8 5 5 4 4 4 6 6 6 5 4 6 6 4 9 6 4 2 3 2 7 8 4 4 3 0 2 3 4 5 5 2 2 4 4 7 11 11 9 6 4 5 6 7 7 7 5 4 2 4 4 2 3 7 7 2 2 3 3 3 10 1 10 10 7 9 8 6 8 12 12 13 11 6 7 6 6 7 7 7 7 8
1 3 4 5 2 7 5 6 6 4 3 2 2 4 6 7 5 2 7 2 8 7 3 5 6 4 5 5 4 5 4 5 3 7 7 9 5 4 3 6 8 9 12 8 5 5 5 6 8 9 12 13 10 6 5 5 8 9 9 9 6 6 2 3 5 5 8 5 11 4 5 12 9 6 8 11 11 8 7 6 4 5 6 7 6 6 8 8
1 1 2 2 2 4 6 7 8 5 4 1 4 1 5 6 8 7 4 3 6 5 3 2 5 6 4 3 4 3 3 5 6 6 4 2 6 7 10 6 7 8 8 5 4 4 4 7 8 9 14 13 12 10 6 7 8 8 10 12 12 8 5 7 9 10 9 7 5 7 5 9 3 9 9 10 7 9 11 6 4 7 8 7 5 6 8 9
2 2 2 2 2 3 3 3 6 4 6 5 3 5 5 6 6 5 4 5 5 3 7 3 5 7 6 2 2 3 3 5 3 1 3 6 7 8 8 10 6 4 4 5 5 3 5 7 9 9 12 13 12 8 8 11 10 10 10 11 11 11 10 9 11 11 13 11 8 15 15 11 4 7 8 9 10 10 11 9 6 5 6 7 8 8 11 12
4 4 2 3 2 1 0 2 2 3 5 5 2 5 3 6 6 7 3 3 3 1 3 4 6 7 8 6 2 4 3 4 7 7 4 6 11 7 8 7 9 4 4 6 5 3 3 4 4 5 7 11 11 10 11 11 11 10 10 11 11 10 10 9 10 11 11 12 14 16 16 13 4 2 8 11 9 8 7 7 8 7 7 7 8 11 13 14
1 0 1 2 3 4 2 3 2 3 2 3 4 5 3 5 6 7 8 3 4 2 5 7 7 9 5 5 5 7 7 6 7 11 12 11 13 7 5 4 4 6 5 6 5 4 3 7 6 6 6 9 6 9 8 7 8 12 14 13 11 9 8 3 3 2 4 4 5 7 10 7 2 9 9 9 6 3 4 7 7 7 9 9 11 13 13 14
0 0 1 1 2 3 3 1 1 2 3 3 4 3 3 5 6 8 6 1 2 3 5 6 7 7 6 5 8 7 7 9 12 13 13 12 13 14 13 14 13 11 9 10 8 9 7 6 6 5 8 10 5 1 3 6 9 11 15 13 10 8 4 3 3 3 4 4 7 8 7 7 9 9 10 5 3 2 2 3 6 8 9 11 12 14 14 15
Wind_Direction
346 344 347 346 345 343 340 337 333 330 329 327 323 321 319 318 317 316 314 312 309 308 309 311 312 308 308 307 312 312 313 305 300 258 240 244 151 210 172 190 182 201 208 147 142 147 158 163 163 164 162 168 158 188 183 202 209 187 207 229 238 246 243 247 257 154 4 176 162 174 178 159 148 155 133 142 145 133 145 123 110 78 89 117 122 136 144 149
346 343 345 344 343 342 340 337 333 330 328 324 321 319 318 318 315 311 309 306 305 305 308 311 311 309 306 306 307 316 311 289 278 262 240 207 183 206 202 200 158 186 191 155 157 163 154 168 162 162 158 174 158 179 165 183 188 189 208 222 253 198 156 270 29 354 323 51 171 178 181 180 159 153 157 161 152 146 143 125 126 102 104 114 134 142 150 154
345 342 340 343 342 340 339 335 331 328 324 321 318 319 319 314 312 310 309 308 305 305 305 307 309 308 306 305 297 21 324 275 256 252 264 236 225 201 201 191 167 177 184 167 172 162 164 165 157 155 165 154 180 172 191 176 185 210 225 226 237 223 262 268 290 292 278 252 171 182 184 200 149 162 159 179 160 167 168 145 145 138 139 141 145 148 152 159
341 341 338 338 341 342 338 334 330 326 324 321 320 323 316 313 310 310 310 307 305 305 306 305 305 309 306 301 300 268 270 255 255 272 235 290 208 205 193 184 170 171 181 171 165 151 132 139 149 155 147 178 161 182 181 181 191 178 216 227 248 264 248 101 284 316 295 246 193 181 167 183 167 163 170 157 155 192 196 175 165 160 152 151 155 155 157 163
339 339 337 336 335 337 335 332 330 328 323 320 319 320 314 314 309 307 308 306 302 305 305 304 302 300 309 316 59 34 235 280 88 285 273 337 207 188 185 177 165 161 172 142 131 129 139 145 150 155 160 160 166 178 221 191 215 179 227 241 236 148 234 256 6 74 53 145 180 168 171 190 157 170 187 168 181 194 205 185 167 151 151 154 159 160 162 165
339 338 337 335 335 334 334 332 329 327 321 319 321 318 317 312 308 306 306 303 301 301 304 300 298 291 272 199 232 270 269 304 356 322 332 330 202 169 170 170 152 150 148 150 152 148 142 149 147 155 175 160 178 188 188 199 194 232 231 245 245 254 281 284 252 329 330 331 163 182 186 138 174 189 194 190 204 94 154 160 152 149 155 157 157 160 167 170
338 337 337 336 336 334 333 329 328 324 321 319 317 319 316 314 310 308 305 303 298 299 294 289 278 267 253 181 316 287 222 294 349 323 332 332 141 158 158 159 146 150 156 151 149 149 159 154 168 170 167 184 198 202 153 187 204 241 254 228 242 238 249 263 279 308 309 234 234 197 160 185 185 202 193 208 206 108 136 144 142 146 151 153 159 168 171 174
337 336 336 336 335 335 332 330 329 325 322 319 316 318 319 315 313 306 305 305 301 300 281 241 209 172 195 185 221 243 203 248 320 319 338 35 137 152 153 155 154 154 162 165 161 164 159 162 177 157 182 184 163 198 171 187 198 223 249 246 257 264 261 271 277 279 283 268 250 178 188 203 194 201 173 212 191 137 135 137 142 145 152 161 163 168 171 174
336 336 336 336 335 335 333 330 329 326 322 318 317 321 318 317 312 303 307 307 303 294 271 231 206 195 132 231 305 314 290 187 328 337 27 58 120 149 153 148 172 160 168 166 174 162 161 182 169 169 186 194 162 189 182 182 216 222 234 249 247 247 269 277 289 286 281 293 187 190 212 206 196 177 215 201 176 140 137 141 146 149 155 164 170 170 172 176
336 336 336 335 335 334 334 331 329 326 322 320 319 320 320 319 312 305 309 307 306 297 232 183 177 181 156 252 240 304 61 155 50 36 37 88 123 148 182 162 169 167 164 175 174 168 184 177 179 178 107 195 160 189 180 212 87 197 237 247 264 267 282 277 274 278 280 270 198 221 215 207 189 194 223 182 157 141 144 147 153 156 163 167 170 174 176 175
336 336 336 334 336 335 333 331 329 327 323 321 318 326 321 319 315 310 308 308 298 218 185 166 162 171 158 214 304 270 73 216 359 351 6 139 138 160 187 184 179 170 169 170 183 185 190 168 153 122 210 217 169 191 196 210 256 281 324 255 253 262 262 265 263 264 266 267 210 224 247 205 188 201 230 160 154 152 149 154 160 165 166 169 171 173 176 180
336 336 336 335 335 334 332 331 331 326 324 319 320 324 325 319 315 312 306 320 146 158 174 171 163 187 120 199 239 242 73 313 317 321 323 243 203 191 186 184 193 183 166 170 188 191 196 173 163 175 183 128 192 103 228 229 241 253 284 287 276 283 278 252 246 251 204 252 202 213 248 204 176 219 210 153 155 160 155 160 165 169 169 170 171 173 176 178
338 336 336 335 335 333 333 332 331 328 322 319 320 324 323 316 314 309 311 87 139 145 162 165 167 236 218 271 228 253 290 301 314 317 314 218 234 238 189 184 191 255 204 176 181 185 157 181 186 191 72 197 145 192 21 209 226 247 256 265 291 284 274 261 224 233 214 234 181 155 245 224 211 216 183 153 162 161 157 165 169 169 170 171 173 176 178 180
338 337 336 336 335 334 333 333 331 327 321 320 321 322 319 312 312 326 98 125 138 146 154 157 157 185 232 259 262 239 255 270 298 291 3 39 125 142 178 176 174 206 127 160 109 148 128 203 241 222 20 240 172 5 242 145 161 215 228 229 256 279 247 125 192 178 212 183 171 176 246 261 226 204 174 163 164 166 172 172 173 171 172 174 177 176 179 184
335 336 334 334 335 333 333 334 330 325 322 321 323 322 313 310 306 115 110 116 142 144 139 139 151 202 239 272 263 275 251 233 250 316 325 349 18 115 163 161 172 174 111 158 158 154 131 155 179 215 223 350 290 278 237 228 175 202 178 225 218 230 261 238 151 182 208 148 185 184 245 257 251 194 168 167 172 172 176 175 176 175 176 176 178 179 181 187
333 331 331 333 333 334 333 332 331 325 324 322 327 324 311 310 112 119 119 131 148 138 118 159 191 331 288 338 47 227 197 315 328 324 314 300 298 246 152 165 163 165 181 105 140 157 172 160 191 210 233 251 251 241 254 237 220 203 221 187 205 200 241 270 214 206 222 137 186 191 241 261 252 183 166 171 174 179 177 177 179 179 178 177 179 181 182 184
332 330 329 329 333 333 334 331 330 327 323 325 326 333 317 167 122 116 127 127 136 127 232 319 187 159 247 97 222 295 351 313 305 302 305 258 230 165 135 142 171 156 132 101 147 153 174 186 151 218 237 242 223 210 222 227 218 209 203 222 187 201 222 238 346 224 212 204 193 205 237 246 0 151 165 174 178 181 181 179 181 180 180 180 179 181 182 186
332 333 327 326 332 334 331 331 329 328 323 324 323 293 90 103 105 120 99 84 118 138 12 311 118 217 224 299 352 319 313 301 303 305 298 279 203 163 144 151 147 154 153 111 136 163 165 196 172 212 186 215 212 210 210 211 209 204 182 207 203 232 240 242 213 110 195 207 221 205 228 243 227 148 176 180 183 183 187 182 182 182 181 180 183 184 186 188
335 334 331 329 329 333 330 328 329 328 326 319 287 350 175 96 352 284 277 158 204 104 270 34 1 31 315 314 308 293 314 308 293 266 317 57 138 159 133 128 155 151 168 172 166 159 167 176 179 215 212 203 208 207 210 204 136 221 198 205 209 210 215 224 229 251 217 191 216 215 226 235 229 204 186 186 188 190 194 185 180 182 182 183 185 188 189 191
333 333 332 329 332 330 330 328 327 327 332 331 37 354 229 41 353 288 306 38 65 123 255 287 152 254 283 293 312 314 298 265 349 84 281 171 132 144 124 144 154 170 160 188 149 191 159 184 194 202 208 205 205 209 218 233 24 342 218 225 224 228 236 209 227 248 232 245 225 227 237 243 237 220 197 192 191 200 193 183 184 184 184 187 190 192 194 194
337 335 333 332 332 332 327 328 327 323 327 297 290 42 46 357 359 356 339 309 279 257 250 267 248 258 274 309 304 334 359 336 67 304 6 292 160 147 135 145 156 174 187 174 154 129 181 207 214 214 209 195 189 197 213 234 244 269 248 221 228 224 239 228 230 207 217 241 238 234 245 246 243 228 208 190 189 199 199 192 190 187 188 190 192 194 196 193
338 336 333 334 333 331 330 326 324 323 309 259 30 68 108 71 9 297 300 322 331 284 246 268 296 272 259 253 266 293 202 301 5 19 32 283 153 201 155 174 174 184 168 142 120 158 199 215 218 207 157 152 185 198 208 218 227 235 245 233 245 231 261 285 263 260 275 225 252 226 244 251 247 232 203 193 195 206 203 197 193 188 190 193 195 195 188 181
340 336 334 334 333 331 330 324 322 321 336 19 48 62 61 58 347 223 234 241 278 267 303 340 266 283 303 251 107 217 333 5 342 351 13 337 164 272 163 181 184 169 162 178 184 172 201 229 221 156 161 187 191 197 202 216 227 228 227 230 221 150 195 229 209 180 230 232 264 215 252 259 263 237 212 201 203 209 205 207 202 192 189 192 192 189 187 186
338 338 336 334 333 333 330 324 306 296 47 316 74 67 99 10 339 139 170 278 334 316 252 2 308 292 323 338 35 344 313 346 261 350 6 352 46 346 213 195 177 176 189 190 200 194 198 66 175 141 175 192 196 195 200 207 220 221 230 231 229 220 226 291 44 336 303 246 251 272 274 267 246 239 213 212 211 213 206 208 213 212 214 205 194 193 193 190
338 337 336 334 335 334 328 320 24 4 301 145 138 131 16 339 323 254 210 214 183 256 156 228 212 213 327 238 248 308 72 256 248 273 298 322 347 228 212 166 198 208 193 190 207 219 230 204 154 158 191 197 202 202 206 204 222 223 225 228 231 233 247 256 283 326 282 241 194 209 259 255 235 238 242 194 194 215 207 202 209 207 197 190 196 199 196 198
337 335 336 337 337 332 317 278 31 344 333 93 85 2 330 329 298 213 236 65 103 55 229 34 286 40 264 348 340 335 255 175 199 326 283 348 290 248 107 207 198 209 173 187 209 233 228 160 167 183 184 192 204 218 206 201 222 224 226 211 225 236 240 251 270 272 248 241 93 228 237 255 175 227 228 186 193 211 203 211 214 205 198 199 202 197 197 196
336 333 335 338 336 335 334 6 334 294 351 357 330 331 319 312 253 180 232 158 216 39 28 355 290 60 310 358 328 258 233 4 324 293 346 9 339 167 237 178 172 220 154 142 211 222 189 188 173 193 199 195 197 214 204 196 213 233 187 182 207 224 229 240 250 252 266 314 295 266 248 263 262 234 216 197 204 208 204 213 216 204 199 205 205 203 201 197
335 331 334 334 333 333 280 309 324 351 354 307 316 312 313 291 156 199 242 231 241 32 12 327 9 305 329 331 351 24 14 325 305 14 348 348 336 177 231 199 199 194 172 180 218 112 181 198 186 189 202 206 212 211 193 192 211 233 174 165 192 213 226 233 243 253 256 296 270 240 193 253 249 231 90 190 212 215 212 216 214 206 207 207 204 204 201 199
333 328 331 330 325 301 241 298 301 315 329 316 308 310 313 238 204 215 43 263 82 56 161 52 163 330 342 317 30 15 327 14 357 322 322 275 15 221 220 226 208 196 198 205 228 212 213 222 187 199 202 220 215 214 192 184 211 215 146 168 203 204 216 224 234 242 252 245 248 241 206 251 259 238 208 182 226 213 212 218 215 207 210 208 207 207 204 198
331 326 326 328 322 182 250 163 232 275 313 317 306 312 282 178 214 207 90 215 35 89 351 315 326 337 330 353 26 9 12 4 341 310 333 27 15 71 16 345 299 229 222 213 249 253 274 240 193 195 214 219 189 214 196 192 209 108 163 174 182 198 211 211 228 235 253 245 240 241 216 225 267 241 218 193 214 210 206 211 213 214 217 215 212 207 201 198
329 327 321 329 290 342 275 297 308 324 322 308 312 277 192 104 240 120 212 63 285 73 226 28 17 331 31 32 7 1 1 0 359 351 10 9 27 36 13 192 7 248 228 231 229 231 239 242 203 225 203 186 201 202 201 203 201 179 190 192 158 169 172 199 201 186 235 249 232 225 223 207 244 241 225 206 213 211 204 206 203 208 212 211 208 204 201 198
329 326 321 324 229 314 349 329 315 317 313 311 300 175 199 205 39 224 133 140 244 56 39 12 35 3 28 44 35 1 356 352 8 12 25 25 45 46 25 42 349 220 217 214 225 177 229 226 206 235 202 194 180 211 190 201 200 203 198 195 200 187 179 206 188 210 220 243 230 207 199 230 234 247 262 189 214 233 216 219 209 206 212 211 209 205 203 201
327 324 318 282 211 217 222 258 296 300 308 299 268 64 208 163 216 89 352 354 92 1 65 285 32 24 20 56 27 352 341 26 353 20 350 42 61 79 59 38 9 303 251 122 225 185 232 219 198 218 210 201 195 202 185 198 198 201 203 192 196 201 197 215 207 228 244 231 135 147 189 244 273 277 227 246 244 239 230 220 224 213 210 207 206 203 201 198
326 320 322 281 267 235 263 284 288 302 314 269 191 166 95 209 157 41 22 25 26 22 41 11 339 43 46 54 28 354 26 62 18 10 2 18 27 36 27 33 18 16 294 275 224 203 220 200 214 198 213 49 214 217 206 205 177 202 203 202 207 207 202 212 208 210 224 268 204 162 177 233 183 227 164 212 230 241 231 220 223 224 218 208 205 197 197 197
318 298 285 282 250 223 242 283 300 306 277 292 54 147 210 83 37 52 30 14 10 333 39 345 16 10 54 55 20 44 8 360 22 3 31 23 45 32 15 2 12 11 359 251 154 295 240 277 41 12 360 340 215 224 216 192 199 202 198 207 214 214 194 231 198 224 244 243 233 185 217 89 224 358 307 265 242 231 223 216 215 219 214 203 191 195 198 199
315 332 311 315 338 336 332 324 316 307 269 332 98 63 72 23 61 359 67 326 286 301 1 173 57 65 53 42 44 5 51 317 11 340 71 56 38 35 28 5 9 17 16 318 10 269 117 235 67 338 234 174 75 1 295 197 218 183 190 207 212 191 204 227 248 214 351 239 248 169 235 247 314 283 254 229 218 232 229 225 220 224 210 185 196 200 200 199
351 337 9 321 330 336 327 324 310 264 69 67 102 99 89 113 10 299 350 317 353 329 76 329 41 351 14 17 18 13 5 311 23 345 55 358 120 34 12 9 1 5 20 345 308 290 306 304 330 319 194 128 357 319 265 259 246 133 208 208 152 186 223 221 234 181 222 234 219 171 228 242 204 258 207 220 215 227 219 218 220 226 199 189 204 202 200 198
319 332 263 304 347 331 326 330 299 87 89 83 81 99 298 92 34 4 347 306 177 96 111 140 99 291 64 354 13 14 3 332 13 5 344 15 95 35 31 347 345 348 345 350 288 91 348 287 242 179 286 300 332 287 244 235 240 228 228 152 178 185 204 206 233 228 218 228 241 207 224 245 223 224 146 210 220 227 218 217 224 218 198 205 207 206 202 198
266 326 32 356 343 340 324 326 285 50 92 84 75 114 40 27 24 13 348 288 317 213 87 54 328 61 6 47 351 316 1 340 4 348 312 32 313 59 54 0 342 338 344 340 262 310 279 261 233 150 279 334 292 205 222 202 211 236 197 183 206 225 208 196 208 249 245 246 229 227 201 245 217 238 235 230 211 223 227 210 221 221 198 205 208 207 198 194
7 338 23 348 344 338 321 292 58 46 61 87 106 74 345 38 14 353 8 339 60 331 89 100 53 82 75 46 324 333 44 325 347 340 306 39 320 71 23 25 344 332 335 328 288 322 284 259 271 130 306 261 212 191 216 225 208 196 211 221 188 216 50 224 204 213 211 230 234 231 232 238 235 189 234 237 224 221 224 217 209 212 204 208 206 200 195 193
338 234 19 353 342 334 299 46 42 39 71 83 60 33 10 26 359 8 5 15 50 28 37 108 96 105 37 216 173 39 309 292 279 289 299 11 349 318 68 10 347 334 328 310 255 0 290 248 265 310 284 224 203 69 90 48 23 343 283 230 208 202 192 202 222 209 225 227 225 214 242 261 221 167 215 226 229 222 218 221 217 218 212 205 208 204 193 192
324 23 348 339 336 336 7 57 42 19 52 51 41 360 12 359 27 5 7 14 30 45 25 89 63 84 81 42 337 0 324 297 249 276 218 289 78 331 33 9 347 327 321 315 324 341 331 306 285 268 257 264 285 294 309 287 266 271 250 273 350 289 224 207 226 206 213 227 240 243 274 251 230 231 225 246 233 221 216 213 221 226 223 214 207 204 198 195
20 351 301 306 338 329 63 77 60 53 59 28 293 81 338 46 18 9 20 12 13 4 56 52 27 233 73 355 305 331 343 294 263 251 311 263 288 311 30 6 342 324 312 293 302 258 292 255 254 259 276 268 264 279 94 122 178 176 147 26 343 314 360 318 299 321 223 206 207 224 238 251 217 220 268 241 259 292 305 299 267 239 219 217 214 204 200 197
326 302 315 332 341 326 62 64 51 49 68 40 52 52 33 48 29 22 26 21 13 7 36 44 88 21 18 5 328 312 347 309 160 268 260 247 295 144 156 318 351 321 337 355 328 7 309 178 255 279 228 215 222 139 130 71 92 74 56 8 0 338 324 300 276 273 264 220 216 216 240 225 237 157 213 269 250 260 270 259 237 260 281 280 269 237 214 200
294 237 242 323 3 36 72 26 84 63 60 39 46 40 11 57 25 23 6 32 6 18 310 56 22 3 33 345 323 332 314 292 296 287 295 300 290 100 236 268 309 315 303 303 307 325 283 294 289 234 208 192 193 203 200 175 22 340 304 258 330 342 355 334 220 203 241 213 217 227 238 238 257 153 212 235 261 261 254 246 225 231 241 254 268 261 231 213
6 7 351 12 23 53 75 59 54 59 63 28 64 39 32 24 9 10 3 66 20 12 39 64 34 64 28 5 2 341 311 319 305 316 323 296 304 289 210 258 295 299 302 302 308 312 279 269 244 260 286 281 26 25 329 269 316 289 294 300 306 324 296 253 319 289 234 234 225 231 238 256 237 201 219 224 241 251 258 226 216 219 218 221 228 229 214 204
294 53 340 355 310 62 75 51 45 37 59 309 54 5 32 27 354 6 11 40 14 359 18 48 35 19 11 3 6 319 304 289 311 310 291 292 294 297 335 321 306 290 294 296 316 304 263 269 254 262 264 266 293 303 326 303 281 286 295 293 295 291 269 244 225 218 22 338 251 172 156 246 243 213 213 219 228 235 242 270 249 206 208 216 224 227 229 210
71 69 10 336 342 8 6 32 9 28 76 209 82 337 36 24 29 13 334 45 348 18 344 150 59 59 30 358 320 278 300 300 301 285 327 294 321 315 313 314 303 297 294 283 314 290 280 260 263 259 261 273 274 280 278 272 258 266 271 275 282 280 253 248 250 260 272 251 270 330 286 256 265 254 261 264 265 267 265 270 321 338 325 302 290 279 263 237
52 95 55 319 82 59 37 332 346 5 47 51 91 26 31 25 24 21 339 318 341 45 24 351 3 358 348 336 254 271 286 301 289 323 306 314 311 319 299 314 291 278 259 278 298 290 278 266 272 268 277 273 268 259 252 263 271 262 256 260 260 267 265 253 260 256 244 243 259 272 286 286 314 315 336 321 329 321 315 337 320 310 302 308 296 275 260 255
41 21 35 20 72 81 347 357 3 17 65 17 46 27 13 15 3 353 348 303 314 55 23 355 340 340 330 319 248 257 272 285 298 293 306 309 297 269 279 269 288 288 251 267 292 301 255 270 358 337 278 266 263 252 244 254 260 267 263 260 258 260 266 261 262 265 258 249 248 256 263 282 269 351 318 306 309 316 311 307 326 330 323 310 294 271 257 247
80 40 326 351 62 52 98 13 19 31 93 45 40 23 348 18 2 354 318 268 246 306 350 339 338 322 313 294 271 264 279 279 274 271 280 277 275 277 269 279 245 271 262 267 269 269 259 268 312 306 295 277 248 242 234 231 258 271 269 257 247 238 233 232 254 342 281 261 263 247 259 256 33 334 314 285 275 307 325 330 326 324 316 307 289 279 271 256
317 240 304 313 52 23 23 349 9 224 68 47 15 27 349 349 350 348 340 123 226 257 309 322 325 316 291 278 286 298 307 288 279 277 273 268 260 263 250 252 251 251 261 259 262 265 254 269 270 272 267 266 247 142 267 272 266 258 244 228 220 199 197 172 205 18 26 297 253 233 248 16 318 330 311 278 240 199 310 317 313 304 299 293 284 278 272 263